Regional Weather Roundup
Issued by NWS Nashville, TN

Home | Current Version | Previous Version | Text Only | Print | Product List | Glossary On
Versions: 1 2 3 4 5 6 7 8 9 10 11 12 13 14 15 16 17 18 19 20 21 22 23 24 25 26 27 28 29 30 31 32 33 34 35 36 37 38 39 40 41 42 43 44 45 46 47 48 49 50
589
ASUS44 KOHX 221315
RWROHX
MIDDLE TENNESSEE HOURLY WEATHER ROUNDUP
NATIONAL WEATHER SERVICE NASHVILLE TN
800 AM CDT FRI MAY 22 2015

NOTE: "FAIR" INDICATES FEW OR NO CLOUDS BELOW 12,000 FEET WITH
NO SIGNIFICANT WEATHER AND/OR OBSTRUCTIONS TO VISIBILITY.

* THESE REPORTS ARE NOT UNDER NWS QUALITY CONTROL AND MAY NOT
  REPORT WEATHER SUCH AS PRECIPITATION AND FOG.


TNZ005>011-023>034-057-059-062>066-078-080-221400
...NORTHERN MIDDLE TENNESSEE...

CITY           SKY/WX    TMP DP  RH WIND       PRES   REMARKS
CLARKSVILLE    SUNNY     54  48  80 CALM      30.30R
CROSSVILLE     SUNNY     49  44  83 NE10      30.28R
NASHVILLE      MOSUNNY   55  47  74 N5        30.30R
PORTLAND       SUNNY     50  46  87 CALM      30.28R
ROCKWOOD       SUNNY     50  44  79 N9        30.26R
SMYRNA         SUNNY     53  48  83 NE3       30.31R
SPARTA         SUNNY     52  48  87 E3        30.27R
$$
TNZ056-058-060-061-075>077-079-093>097-221400
...SOUTHERN MIDDLE TENNESSEE...

CITY           SKY/WX    TMP DP  RH WIND       PRES   REMARKS
COLUMBIA       SUNNY     50  46  87 CALM      30.28R
LEWISBURG      SUNNY     50  45  83 CALM      30.29R
MCMINNVILLE    SUNNY     52  52 100 NE9       30.29R
SHELBYVILLE    SUNNY     52  48  87 CALM      30.30R
TULLAHOMA      SUNNY     52  45  76 NE8       30.29R
WINCHESTER     MOSUNNY   52  46  82 NE5       30.28R
$$


...KEY TO REMARKS...
VSB - VISIBILITY IN MILES
WCI - WIND CHILL INDEX
HX  - HEAT INDEX




USA.gov is the U.S. government's official web portal to all federal, state and local government web resources and services.